Satellite: FIREBIRD FU3 Catalog number: 40377 Epoch time: 15077.25454044 Element set: 999 Inclination: 099.1267 deg RA of node: 094.0169 deg Eccentricity: 0.0163965 Arg of perigee: 190.6187 deg Mean anomaly: 169.1663 deg Mean motion: 15.05351516 rev/day Decay rate: 1.1145e-04 rev/day^2 Epoch rev: 686 Checksum: 327
Satellite: FIREBIRD FU4 Catalog number: 40378 Epoch time: 15077.85192555 Element set: 999 Inclination: 099.1215 deg RA of node: 094.7207 deg Eccentricity: 0.0163585 Arg of perigee: 188.4686 deg Mean anomaly: 171.4362 deg Mean motion: 15.05407788 rev/day Decay rate: 1.5588e-04 rev/day^2 Epoch rev: 695 Checksum: 361
Satellite: GRIFEX Catalog number: 40379 Epoch time: 15077.85801117 Element set: 999 Inclination: 099.1262 deg RA of node: 094.7219 deg Eccentricity: 0.0164043 Arg of perigee: 189.4085 deg Mean anomaly: 170.5178 deg Mean motion: 15.05115755 rev/day Decay rate: 1.2172e-04 rev/day^2 Epoch rev: 695 Checksum: 319
Satellite: LAMBDA-SAT Catalog number: 40458 Epoch time: 15077.69048534 Element set: 999 Inclination: 051.6537 deg RA of node: 175.8512 deg Eccentricity: 0.0010222 Arg of perigee: 128.6102 deg Mean anomaly: 029.2508 deg Mean motion: 15.59548146 rev/day Decay rate: 2.06455e-03 rev/day^2 Epoch rev: 1191 Checksum: 305
/EX